Stündliche Wetter Kyshtym

Heute, 16 Mai, Sonntag

Zeit Temperatur Niederschläge Wind Luftdruck Luftfeuchtigkeit
00:00 +21°C° 0 mm 3 m/S 743 mmHg 52%
01:00 +20°C° 0 mm 2 m/S 742 mmHg 54%
02:00 +19°C° 0 mm 2 m/S 743 mmHg 56%
03:00 +19°C° 0 mm 2 m/S 743 mmHg 58%
04:00 +18°C° 0 mm 2 m/S 743 mmHg 60%
05:00 +20°C° 0 mm 3 m/S 743 mmHg 55%
06:00 +22°C° 0 mm 3 m/S 743 mmHg 49%
07:00 +25°C° 0 mm 4 m/S 743 mmHg 44%
08:00 +27°C° 0 mm 4 m/S 743 mmHg 39%
09:00 +29°C° 0 mm 4 m/S 743 mmHg 33%
10:00 +32°C° 0 mm 4 m/S 743 mmHg 27%
11:00 +33°C° 0 mm 4 m/S 743 mmHg 25%
12:00 +33°C° 0 mm 4 m/S 743 mmHg 22%
13:00 +34°C° 0 mm 4 m/S 743 mmHg 20%
14:00 +34°C° 0 mm 4 m/S 743 mmHg 20%
15:00 +34°C° 0 mm 4 m/S 743 mmHg 20%
16:00 +33°C° 0 mm 5 m/S 743 mmHg 20%
17:00 +30°C° 0 mm 4 m/S 742 mmHg 27%
18:00 +28°C° 0 mm 3 m/S 742 mmHg 33%
19:00 +26°C° 0 mm 2 m/S 742 mmHg 39%
20:00 +25°C° 0 mm 2 m/S 742 mmHg 41%
21:00 +23°C° 0 mm 2 m/S 742 mmHg 44%
22:00 +21°C° 0 mm 2 m/S 742 mmHg 47%
23:00 +20°C° 0 mm 2 m/S 742 mmHg 48%

Morgen, 17 Mai, Montag

Zeit Temperatur Niederschläge Wind Luftdruck Luftfeuchtigkeit
00:00 +20°C° 0 mm 2 m/S 742 mmHg 49%
01:00 +19°C° 0 mm 2 m/S 742 mmHg 49%
02:00 +19°C° 0 mm 2 m/S 742 mmHg 51%
03:00 +19°C° 0 mm 2 m/S 742 mmHg 52%
04:00 +18°C° 0 mm 2 m/S 742 mmHg 53%
05:00 +20°C° 0 mm 2 m/S 742 mmHg 48%
06:00 +24°C° 0 mm 3 m/S 742 mmHg 43%
07:00 +26°C° 0 mm 4 m/S 743 mmHg 39%
08:00 +27°C° 0 mm 4 m/S 742 mmHg 34%
09:00 +29°C° 0 mm 4 m/S 742 mmHg 30%
10:00 +32°C° 0 mm 5 m/S 742 mmHg 26%
11:00 +32°C° 0 mm 5 m/S 742 mmHg 24%
12:00 +32°C° 0 mm 5 m/S 742 mmHg 23%
13:00 +33°C° 0 mm 6 m/S 742 mmHg 21%
14:00 +33°C° 0 mm 6 m/S 741 mmHg 22%
15:00 +33°C° 0 mm 6 m/S 741 mmHg 22%
16:00 +32°C° 0 mm 5 m/S 741 mmHg 23%
17:00 +30°C° 0 mm 5 m/S 741 mmHg 27%
18:00 +28°C° 0 mm 4 m/S 741 mmHg 31%
19:00 +27°C° 0 mm 3 m/S 740 mmHg 35%
20:00 +25°C° 0 mm 3 m/S 740 mmHg 40%
21:00 +22°C° 0 mm 3 m/S 740 mmHg 45%
22:00 +21°C° 0 mm 2 m/S 740 mmHg 50%
23:00 +21°C° 0 mm 3 m/S 740 mmHg 51%

übermorgen, 18 Mai, Dienstag

Zeit Temperatur Niederschläge Wind Luftdruck Luftfeuchtigkeit
00:00 +21°C° 0 mm 4 m/S 740 mmHg 53%
01:00 +21°C° 0 mm 4 m/S 740 mmHg 55%
02:00 +20°C° 0 mm 4 m/S 740 mmHg 59%
03:00 +19°C° 0 mm 3 m/S 740 mmHg 63%
04:00 +19°C° 0 mm 3 m/S 740 mmHg 67%
05:00 +20°C° 0 mm 3 m/S 740 mmHg 64%
06:00 +21°C° 0 mm 4 m/S 740 mmHg 60%
07:00 +22°C° 0 mm 4 m/S 740 mmHg 57%
08:00 +23°C° 0 mm 5 m/S 740 mmHg 51%
09:00 +25°C° 0 mm 5 m/S 740 mmHg 45%
10:00 +26°C° 0 mm 5 m/S 740 mmHg 39%
11:00 +27°C° 0 mm 5 m/S 740 mmHg 36%
12:00 +27°C° 0 mm 5 m/S 740 mmHg 33%
13:00 +28°C° 0 mm 6 m/S 740 mmHg 30%
14:00 +28°C° 0 mm 5 m/S 740 mmHg 29%
15:00 +27°C° 0 mm 5 m/S 740 mmHg 28%
16:00 +27°C° 0 mm 5 m/S 740 mmHg 27%
17:00 +25°C° 0 mm 5 m/S 740 mmHg 35%
18:00 +22°C° 0 mm 5 m/S 741 mmHg 43%
19:00 +20°C° 0 mm 5 m/S 741 mmHg 50%
20:00 +17°C° 0 mm 5 m/S 742 mmHg 58%
21:00 +17°C° 0 mm 4 m/S 742 mmHg 65%
22:00 +14°C° 0 mm 4 m/S 743 mmHg 72%
23:00 +13°C° 0 mm 4 m/S 743 mmHg 74%

19 Mai, Mittwoch

Zeit Temperatur Niederschläge Wind Luftdruck Luftfeuchtigkeit
00:00 +12°C° 0 mm 4 m/S 744 mmHg 76%
01:00 +11°C° 0 mm 3 m/S 744 mmHg 78%
02:00 +11°C° 0 mm 4 m/S 744 mmHg 74%
03:00 +11°C° 0 mm 4 m/S 745 mmHg 71%
04:00 +11°C° 0 mm 4 m/S 745 mmHg 67%
05:00 +12°C° 0 mm 4 m/S 745 mmHg 65%
06:00 +12°C° 0 mm 4 m/S 746 mmHg 63%
07:00 +13°C° 0 mm 4 m/S 746 mmHg 60%
08:00 +14°C° 0 mm 3 m/S 746 mmHg 56%
09:00 +16°C° 0 mm 3 m/S 746 mmHg 51%
10:00 +18°C° 0 mm 3 m/S 746 mmHg 47%
11:00 +19°C° 0 mm 3 m/S 746 mmHg 43%
12:00 +20°C° 0 mm 3 m/S 746 mmHg 39%
13:00 +21°C° 0 mm 3 m/S 746 mmHg 35%
14:00 +21°C° 0 mm 3 m/S 746 mmHg 34%
15:00 +21°C° 0 mm 3 m/S 746 mmHg 33%
16:00 +22°C° 0 mm 3 m/S 745 mmHg 31%
17:00 +20°C° 0 mm 2 m/S 745 mmHg 36%
18:00 +19°C° 0 mm 2 m/S 745 mmHg 41%
19:00 +18°C° 0 mm 2 m/S 745 mmHg 45%
20:00 +16°C° 0 mm 1 m/S 745 mmHg 48%
21:00 +15°C° 0 mm 1 m/S 746 mmHg 52%
22:00 +13°C° 0 mm 1 m/S 746 mmHg 55%
23:00 +13°C° 0 mm 1 m/S 746 mmHg 57%

20 Mai, Donnerstag

Zeit Temperatur Niederschläge Wind Luftdruck Luftfeuchtigkeit
00:00 +12°C° 0 mm 1 m/S 746 mmHg 59%
01:00 +12°C° 0 mm 1 m/S 745 mmHg 61%
02:00 +11°C° 0 mm 1 m/S 746 mmHg 63%
03:00 +11°C° 0 mm 1 m/S 746 mmHg 65%
04:00 +10°C° 0 mm 1 m/S 746 mmHg 67%
05:00 +13°C° 0 mm 1 m/S 746 mmHg 60%
06:00 +15°C° 0 mm 2 m/S 746 mmHg 53%
07:00 +18°C° 0 mm 2 m/S 746 mmHg 45%
08:00 +19°C° 0 mm 2 m/S 746 mmHg 40%
09:00 +21°C° 0 mm 2 m/S 746 mmHg 35%
10:00 +24°C° 0 mm 1 m/S 746 mmHg 30%
11:00 +26°C° 0 mm 1 m/S 745 mmHg 27%
12:00 +27°C° 0 mm 1 m/S 745 mmHg 25%
13:00 +28°C° 0 mm 1 m/S 745 mmHg 22%
14:00 +28°C° 0 mm 2 m/S 744 mmHg 22%
15:00 +28°C° 0 mm 2 m/S 744 mmHg 22%
16:00 +28°C° 0 mm 2 m/S 744 mmHg 21%
17:00 +26°C° 0 mm 2 m/S 744 mmHg 27%
18:00 +25°C° 0 mm 2 m/S 743 mmHg 33%
19:00 +23°C° 0 mm 2 m/S 743 mmHg 38%
20:00 +20°C° 0 mm 2 m/S 743 mmHg 42%
21:00 +18°C° 0 mm 2 m/S 743 mmHg 46%
22:00 +17°C° 0 mm 2 m/S 743 mmHg 50%
23:00 +16°C° 0 mm 2 m/S 743 mmHg 51%

21 Mai, Freitag

Zeit Temperatur Niederschläge Wind Luftdruck Luftfeuchtigkeit
00:00 +16°C° 0 mm 2 m/S 743 mmHg 52%
01:00 +15°C° 0 mm 1 m/S 743 mmHg 53%
02:00 +15°C° 0 mm 2 m/S 744 mmHg 56%
03:00 +15°C° 0 mm 2 m/S 744 mmHg 58%
04:00 +14°C° 0 mm 2 m/S 744 mmHg 60%
05:00 +16°C° 0 mm 2 m/S 744 mmHg 55%
06:00 +19°C° 0 mm 2 m/S 744 mmHg 49%
07:00 +21°C° 0 mm 2 m/S 745 mmHg 43%
08:00 +24°C° 0 mm 2 m/S 745 mmHg 37%
09:00 +25°C° 0 mm 3 m/S 745 mmHg 31%
10:00 +27°C° 0 mm 3 m/S 745 mmHg 25%
11:00 +28°C° 0 mm 3 m/S 745 mmHg 25%
12:00 +28°C° 0 mm 3 m/S 744 mmHg 25%
13:00 +29°C° 0 mm 4 m/S 744 mmHg 25%
14:00 +29°C° 0 mm 4 m/S 744 mmHg 26%
15:00 +28°C° 0 mm 4 m/S 744 mmHg 26%
16:00 +28°C° 0 mm 4 m/S 744 mmHg 27%
17:00 +27°C° 0 mm 4 m/S 744 mmHg 33%
18:00 +25°C° 0 mm 3 m/S 744 mmHg 39%
19:00 +24°C° 0 mm 2 m/S 744 mmHg 45%
20:00 +21°C° 0 mm 2 m/S 744 mmHg 50%
21:00 +19°C° 0 mm 2 m/S 744 mmHg 55%
22:00 +18°C° 0 mm 2 m/S 744 mmHg 61%
23:00 +17°C° 0 mm 2 m/S 744 mmHg 63%
Mehr zeigen

Wir brauchen deine Erlaubnis

Meteoprog und unser Service Anbieter werden persönliche Daten aufbewahren, so wie Cookies, Geräte Bezeichnung oder ähnliche Technologien von deinem Gerät und Prozess, so wie Persönliche Daten Inhalte und Werbungen, genauso wie social Media und den Verkehr zu analysieren.

  • Aufbewahrung und/oder Zugang zu deiner Geräte Informationen.

    Cookies, Geräte Bezeichnung oder andere Informationen, können aufbewahrt oder Zugang zu deinem Gerät erhalten, für den Grund, der oben angegeben wird.

  • Personalisierte Werbung und Inhalte, Messungen, Einblick in das Publikum und Produkt Entwicklung.

    Werbungen und Inhalte können personalisiert werden, basierend auf ein Profil. Mehr Daten können besser personalisierte Werbungen und Inhalte hinzufügen. Werbung und Inhalte können gezeigt und gemessen werden. Einblicke über das Publikum, welche die Werbung gesehen haben und den Inhalt, können abgeleitet werden. So wie Daten können genutzt werden, um es zu verbessern oder die Benutzer Erfahrung zu verbessern das System und die Software.

Wenn du “Ich stimme zu” klickst, erlaubst du uns, die Cookies zu benutzen die Geräte Bezeichnung, den Web oder ähnliche Technologien zu benutzen. Deine Settings, können in deinem Gerät bei deinem Browser geändert werden.

Für den bestimmten Zweck, berechtigten Interessen beruhen darauf, mehr als auf den Inhalt. Du kannst mehr darüber in unseren Privaten und Cookie Politik lesen.